STARLINK-32844, 62820

Orbit data source: Space-Track

STARLINK-32844, 62820 is a payload satellite owned by SpaceX/Seattle (US) in LEO that was launched on Fri, 24 Jan 2025 UTC via an FALCON 9 launch vehicle from the Air Force Western Test Range (AFWTR). Payload-class satellites include a variety of spacecraft equipped with specific instruments for various scientific and technological missions. These include communications satellites like Starlink; space stations such as the ISS; scientific satellites like the Hubble; Earth observation satellites from companies like Planet Labs, Umbra, and HawkEye 360; GPS; miniature CubeSats for education and research; and military/defense satellites.

Loading next visibility...
Identifier
62820, 2025-018Q
Orbit
LEO
Last TLE update
18 hours ago
Origin
Manufacturer
SpaceX/Seattle
Mission
Operational Commercial Communications
Bus & Motor
STARLINK V2M, Unknown motor
Mass
730 kg wet, ~700 kg dry
Launch date (UTC)
2025-01-24 (6 months ago)
Launch vehicle
FALCON 9
Launch site
Air Force Western Test Range (AFWTR)
Object type
Payload
Rocket body
Debris
Shape & HBR
Box + 2 Pan, 14.5 m
Radar Cross Section
33.884 m², Large (>1 m²)

Expand to show TLE details & history

TLE from 18 hours ago
0 STARLINK-32844
1 62820U 25018Q   25200.68257958  .00006016  00000-0  21509-3 0  9996
2 62820  53.1576 311.9148 0001028  82.7097 277.4020 15.30198678 27490
Epoch: 2025-07-19T16:22Z
TLE epoch observation values (Epoch: 2025-07-19T16:22:54.875Z)
Latitude
-0.00008°
Longitude
128.46992°
Altitude
476.028 km
Speed
7.629 km/s
True Right ascension
20h 47m 39s
True Declination
0° 00' 00"
Sunlit
Object was in full shadow at epoch
Visualization orbit readout
Latitude
-14.95095°
Longitude
-43.55909°
Altitude
479.491 km
Speed
7.626 km/s
Apparent Right ascension
10h 11m 40s
Apparent Declination
-27° 39' 42"
Sunlit
Object is in daylight
Visualization observer readout
Local Sidereal Time
23:22:42
Azimuth
55.575° ENE
Elevation
-70.881°
Doppler factor
1
Orbital elements
Apogee altitude
476.18 km
Perigee altitude
474.771 km
Semi-major axis
6,853.613 km
Eccentricity
0.0001
Inclination
53.1576°
RAAN
311.9148°
Arg. of periapsis
82.7097°
True anomaly
277.39032°
Mean anomaly
277.402°
Eccentric anomaly
277.39616°
Mean motion
3.82529 °/min
Orbital period
94.11 mins
BSTAR
0.00021509
Loading maneuver chart data...
Loading SW <> Apogee altitude chart data...
Loading historical data...
Loading historical data...
Loading historical data...
Loading historical data...
Loading historical data...
Loading historical data...
Loading historical data...
|